Lid_Strength_Index
10 9 8 8 8 9 10 10 11 11 12 13 12 11 11 14 14 14 14 14 15 14
11 11 10 10 9 10 10 11 12 13 14 14 14 13 14 15 16 16 16 16 15 15
12 12 12 12 12 12 12 12 13 14 14 14 14 14 15 15 14 15 15 15 16 16
13 13 13 13 13 13 14 14 15 15 15 15 16 16 16 15 15 15 15 16 16 17
14 14 15 15 14 14 15 15 15 16 16 16 16 16 16 17 17 16 17 17 18 18
15 15 16 16 15 15 16 16 16 16 16 16 16 17 16 17 17 17 17 18 18 19
16 15 15 15 15 15 15 16 16 16 16 16 16 16 16 17 17 17 17 17 17 18
16 16 16 15 15 15 15 15 15 15 15 15 16 16 17 17 18 18 18 18 17 16
17 17 17 17 17 17 17 16 16 16 15 15 15 14 15 16 18 18 19 20 19 19
17 18 17 17 17 18 18 17 18 17 16 16 15 14 15 16 18 19 19 19 20 20
18 18 18 18 19 19 19 18 19 19 18 18 17 15 16 17 19 19 20 20 19 20
19 19 19 19 20 19 19 19 19 19 19 19 19 16 18 20 20 21 21 20 20 20
19 20 21 20 20 20 20 19 19 19 19 19 19 17 17 19 19 21 21 20 19 16
19 20 19 20 19 19 19 19 20 20 20 19 18 16 15 16 18 19 20 20 21 20